Theta_e
331 325 319 321 321 319 318 316 317 318 318 318 318 317 316 315 314 313 313 312 311 311 311 311 310 310 309 309 309 309 310 314 320 323 321 329 342 343 344 343 342 340 337
327 326 320 321 321 321 319 318 318 318 319 319 319 318 318 317 316 316 315 315 315 313 310 309 309 309 309 309 308 308 308 308 308 310 315 317 334 342 342 341 341 339 338
329 327 323 321 323 323 320 319 320 319 319 319 319 319 319 318 316 316 316 317 317 316 314 312 310 310 310 310 311 311 311 310 309 308 307 310 317 338 341 341 341 341 337
328 327 326 323 324 325 320 320 321 320 320 320 320 319 319 319 318 318 317 317 318 319 319 318 317 316 315 313 312 312 313 314 314 311 309 307 309 329 340 340 340 340 340
328 327 326 326 326 326 321 320 321 320 320 320 320 320 320 320 320 319 319 318 318 319 321 321 321 322 321 317 319 322 321 321 318 316 313 308 307 323 339 339 340 340 341
329 328 327 326 326 326 323 320 321 321 320 320 320 320 320 320 321 321 321 320 319 319 320 322 323 324 324 324 326 327 328 329 327 321 318 314 307 313 335 337 338 338 340
330 330 329 328 327 327 326 320 320 321 321 320 320 320 320 321 321 322 322 321 320 319 319 320 322 325 327 330 330 329 329 326 329 329 325 317 309 308 324 331 329 335 335
331 330 330 328 328 326 327 323 320 321 321 320 320 320 321 321 321 322 322 321 321 320 319 319 321 322 323 324 327 325 326 328 327 327 327 321 316 314 320 321 323 331 333
332 332 331 330 328 326 325 324 321 320 321 320 320 320 320 321 321 322 322 322 321 321 320 320 322 323 324 324 323 322 322 325 328 329 323 326 322 322 327 324 328 330 331
332 331 331 332 332 329 327 324 321 320 320 320 320 320 320 321 321 322 322 322 322 322 321 321 321 323 326 325 321 318 318 318 322 326 331 323 326 328 326 327 328 327 327
332 331 332 332 331 331 328 325 322 320 319 320 319 319 319 320 321 321 322 322 322 322 322 323 323 324 326 327 326 326 321 317 317 320 327 329 323 327 330 326 329 329 327
332 332 332 333 333 333 331 327 325 322 320 320 320 319 319 319 320 321 321 321 321 322 323 324 325 324 326 328 327 327 322 318 317 318 320 323 326 323 330 330 330 331 331
330 331 331 331 331 333 334 333 329 325 323 320 320 320 319 319 319 320 320 321 321 321 323 324 326 324 327 328 328 328 322 321 323 324 324 321 321 324 323 330 330 329 330
327 328 329 329 329 331 333 334 334 331 326 324 321 320 320 319 319 319 320 320 321 322 323 325 327 326 326 329 329 328 327 326 328 328 328 329 328 327 321 323 329 329 329
327 327 326 326 327 329 331 333 334 334 333 328 324 322 320 320 319 319 319 320 321 322 323 326 327 328 329 330 330 330 329 328 327 328 327 328 328 328 320 321 321 327 328
326 327 326 326 326 328 329 330 330 332 334 332 328 325 321 320 319 319 319 320 321 322 325 327 329 330 331 331 331 331 330 329 328 328 328 328 327 328 322 324 321 325 325
327 326 325 326 325 326 327 328 329 331 332 333 332 326 327 324 320 320 320 320 321 322 327 329 331 332 332 332 330 330 331 330 330 329 328 328 327 329 325 326 326 327 329
326 325 325 326 326 326 326 327 328 329 331 332 333 333 330 327 321 320 321 321 322 323 329 331 332 333 332 330 330 331 332 330 329 330 329 328 327 327 328 326 326 326 326
325 325 325 325 326 328 327 327 328 329 329 331 333 334 334 331 325 322 321 322 323 327 333 331 333 333 331 331 330 329 328 328 329 329 329 328 327 326 327 328 327 326 325
324 324 325 326 328 328 328 327 328 329 330 331 332 334 335 335 333 328 323 323 327 334 332 333 332 331 332 331 329 327 326 326 327 328 329 328 327 326 326 328 328 325 325
323 325 327 328 327 327 328 328 329 329 330 330 332 334 336 336 335 330 331 330 334 333 333 333 332 333 331 329 328 326 325 325 325 327 328 328 327 326 327 328 328 326 327
322 323 324 325 327 328 328 328 329 329 329 331 335 337 337 338 336 336 335 335 334 333 334 333 332 331 330 328 327 326 326 325 325 326 327 327 327 326 326 327 327 326 326
321 324 324 325 327 328 328 328 329 330 331 333 336 338 339 339 337 339 337 334 335 334 334 332 332 331 327 326 326 326 326 325 325 326 326 326 327 326 327 327 327 326 326
321 322 324 324 325 327 327 328 329 329 329 331 334 337 340 340 340 337 335 333 333 334 333 332 331 326 325 325 325 325 325 325 324 324 326 327 327 327 326 326 326 326 325
321 323 323 324 324 325 327 328 330 332 335 336 336 340 341 341 337 335 334 334 334 332 331 330 324 323 322 322 323 323 324 325 324 324 324 322 325 326 326 326 326 326 325
322 324 326 326 325 325 327 329 332 335 337 339 340 341 341 336 334 333 334 334 333 332 328 323 322 321 323 323 323 322 323 324 323 323 324 325 324 326 326 326 326 325 325
Wind_Speed
21 23 25 22 19 15 13 13 12 12 11 12 12 11 10 8 6 4 3 2 3 5 7 8 8 8 8 8 9 10 12 13 14 12 10 7 5 5 4 3 4 6 7
11 21 26 24 20 15 13 13 12 12 11 11 10 10 10 9 8 6 4 3 1 1 3 5 7 7 8 8 8 8 9 10 11 14 14 11 9 8 7 5 5 7 8
16 18 25 24 20 16 14 14 12 11 11 10 9 9 9 8 8 7 6 5 3 2 1 2 3 4 5 5 6 6 6 7 8 9 13 15 13 12 10 7 7 7 8
14 18 20 23 21 19 16 16 15 13 12 10 9 9 7 7 6 6 6 5 4 3 1 1 1 2 3 3 4 3 4 5 6 7 8 12 16 15 12 11 9 9 10
14 16 16 19 21 20 19 18 17 15 14 11 10 9 8 7 5 6 6 5 4 2 1 1 1 2 3 3 3 3 2 3 4 5 7 9 14 16 15 14 12 10 11
12 14 15 18 20 22 21 19 19 18 16 14 13 11 9 8 6 5 5 5 3 1 1 0 1 3 4 4 5 5 4 4 4 4 6 8 11 17 17 15 13 11 12
9 10 15 17 17 22 24 23 22 20 19 18 16 13 12 9 8 5 4 3 3 2 2 2 2 3 5 6 8 9 9 7 8 5 6 7 9 14 17 15 13 13 11
11 10 15 18 20 25 27 26 24 24 22 21 19 16 14 12 9 7 5 3 1 2 3 2 2 4 5 8 10 11 12 11 11 10 9 8 9 10 14 14 13 13 12
12 14 15 18 23 28 30 30 28 27 25 24 22 20 18 16 13 11 7 4 2 1 2 3 2 4 6 8 10 12 13 14 14 13 12 11 11 10 13 13 12 12 10
14 15 19 21 25 28 32 33 32 30 28 27 26 25 22 20 17 14 11 8 6 4 3 3 3 4 5 6 8 10 12 14 16 16 14 14 13 12 15 14 13 12 12
22 24 24 27 30 29 32 36 35 34 32 31 30 29 26 26 22 19 15 12 9 7 6 5 5 4 4 4 6 8 11 14 15 17 17 15 16 17 16 17 17 15 14
28 28 28 27 31 32 34 37 38 39 37 37 36 34 33 31 27 23 19 16 13 11 10 8 8 7 5 5 6 7 8 10 12 14 16 17 18 19 20 18 17 15 14
19 24 29 30 31 32 37 39 41 43 43 42 40 38 36 34 32 29 24 21 17 14 12 12 11 9 7 6 7 6 4 3 5 6 8 12 18 20 20 22 20 16 16
26 22 21 26 33 34 40 41 45 46 47 46 45 43 42 40 36 32 28 24 20 16 15 16 13 11 9 8 8 8 7 7 7 8 9 11 12 14 22 22 22 18 15
23 18 25 24 26 32 37 43 46 46 49 50 48 47 45 44 40 36 31 27 23 19 18 18 15 14 11 10 10 11 12 12 12 12 10 11 12 13 15 22 22 20 17
27 32 34 32 31 31 36 39 42 46 48 52 51 50 49 48 43 36 32 30 24 21 20 16 16 15 13 13 13 14 14 15 15 15 15 14 14 12 12 16 18 20 18
35 34 38 41 37 32 34 36 37 44 47 48 52 52 46 52 47 37 32 29 25 21 20 18 17 17 16 15 15 16 17 16 18 18 18 16 14 11 13 14 13 15 17
36 41 44 38 36 33 34 35 37 39 45 44 44 49 50 50 46 37 33 31 25 25 21 19 17 17 16 16 18 19 20 19 20 21 19 17 15 15 12 14 12 11 12
41 43 39 40 36 31 30 32 34 40 37 40 44 45 46 46 38 35 34 29 27 26 20 16 16 16 17 17 19 19 22 22 21 22 22 19 16 15 15 17 13 10 10
38 40 35 31 26 28 28 31 36 34 32 36 40 43 40 37 26 28 28 29 24 22 18 15 13 15 18 19 21 22 20 20 21 22 23 19 19 16 17 19 15 11 10
33 32 27 25 27 32 30 30 33 31 33 36 38 38 34 22 21 24 27 26 24 22 17 13 14 17 18 19 20 20 19 19 19 20 19 19 19 16 16 18 18 12 9
34 33 31 31 30 31 28 30 31 32 33 34 35 29 23 18 22 21 24 23 21 19 17 15 15 17 19 18 16 14 11 14 16 20 18 18 17 17 15 19 19 15 12
35 31 30 28 29 28 25 28 31 30 29 30 31 23 18 21 20 23 18 18 19 17 15 14 15 17 17 14 11 9 4 4 6 8 19 19 17 18 16 15 17 15 15
37 38 33 27 27 29 29 30 30 31 30 29 20 18 19 21 22 16 20 16 17 15 13 13 16 16 12 11 11 12 13 6 2 2 10 17 13 13 15 14 14 13 12
37 36 37 33 29 32 31 27 27 26 21 16 15 18 21 21 18 19 18 17 16 12 14 16 14 10 11 10 11 11 13 10 5 1 1 8 13 13 13 15 13 14 11
32 31 20 14 19 23 23 21 18 17 16 15 18 23 25 18 20 20 18 15 13 14 14 11 10 9 8 7 8 11 14 15 15 10 3 4 10 16 15 16 14 14 13
Wind_Direction
199 194 191 188 183 178 168 166 158 147 136 127 128 131 125 122 120 123 134 152 203 226 238 245 248 251 253 249 246 243 241 240 235 236 238 234 230 228 216 202 180 176 167
182 197 192 191 187 184 175 176 169 159 150 142 137 134 129 127 116 102 90 76 83 221 231 236 241 244 246 247 240 241 239 238 236 233 237 232 221 220 223 201 181 189 182
194 198 195 193 192 194 190 185 183 175 170 160 154 149 142 136 123 106 99 100 111 135 206 226 239 245 243 248 248 239 238 240 235 231 232 230 225 218 215 210 193 187 191
195 195 195 196 199 204 199 195 195 192 190 181 174 165 152 134 120 106 90 83 91 115 132 196 237 262 266 258 259 256 246 247 247 238 231 226 221 219 215 211 205 203 201
180 187 194 198 207 211 206 205 205 203 201 201 195 188 171 157 143 119 94 80 74 96 129 169 219 252 265 267 263 267 262 259 254 255 243 234 221 216 215 212 211 206 201
179 185 198 202 209 215 216 213 214 214 212 211 210 203 190 179 167 140 101 78 55 85 107 16 247 255 257 256 268 279 266 261 253 241 250 249 226 215 217 217 216 209 211
179 183 201 207 216 223 223 220 219 220 220 218 215 215 205 198 189 164 132 102 59 19 21 359 317 280 270 262 265 270 272 261 248 241 249 245 233 222 220 222 225 216 215
214 210 210 215 223 222 226 226 225 226 225 223 222 221 217 213 207 200 182 156 93 9 346 344 327 297 280 271 268 264 264 261 250 243 251 243 225 224 215 218 215 222 222
224 227 231 229 229 228 228 229 231 229 229 228 227 226 224 222 218 218 211 207 216 274 317 320 325 326 296 276 268 266 263 258 255 245 241 237 223 222 212 216 203 207 217
245 250 248 241 235 236 232 231 233 232 234 233 232 230 228 228 225 225 223 226 233 248 268 283 304 326 312 294 277 272 268 260 253 246 238 235 229 219 215 217 222 224 226
245 244 244 244 238 239 240 236 234 234 236 236 234 232 232 232 229 230 229 232 239 247 255 261 278 292 311 314 304 290 274 268 261 251 240 234 232 223 219 221 225 233 233
255 252 254 253 248 245 241 242 239 238 236 236 235 235 236 236 234 234 232 234 240 245 252 262 265 274 291 294 308 315 288 269 263 256 246 237 235 232 226 227 231 229 232
274 268 261 261 258 251 248 247 244 242 240 239 239 239 239 238 235 232 232 234 239 246 255 260 262 273 277 283 296 300 290 255 252 253 247 238 240 240 235 233 234 236 240
278 271 267 273 267 255 250 249 247 246 243 243 241 240 240 239 235 235 235 237 241 248 253 257 261 266 275 278 284 279 263 259 253 257 256 251 249 254 240 237 236 238 239
277 276 288 288 282 262 252 251 251 249 249 247 244 244 241 242 239 239 237 238 244 249 256 253 261 261 268 274 276 274 266 256 257 256 251 262 270 268 247 230 235 235 233
282 291 296 294 291 271 261 259 257 252 252 250 248 247 245 245 242 241 241 242 245 253 256 257 262 262 268 271 275 272 268 259 256 256 262 265 272 264 240 229 233 234 234
291 299 300 300 297 285 279 269 261 255 252 253 251 248 251 250 244 242 243 243 249 257 258 255 258 264 267 274 277 278 275 266 257 259 265 270 266 255 241 235 233 223 224
293 298 299 297 297 288 276 270 264 261 255 253 254 251 251 253 245 242 242 242 241 246 246 254 261 264 272 277 275 274 277 273 261 263 262 266 259 244 241 230 225 219 223
293 294 294 293 292 286 272 262 263 260 258 250 250 252 252 253 248 243 241 242 244 235 236 246 259 266 269 279 282 278 276 271 264 259 257 260 252 246 236 226 219 227 222
289 289 284 283 288 290 273 254 252 255 248 244 247 250 252 256 255 241 236 233 230 227 237 247 263 264 269 278 283 279 272 267 261 255 252 250 243 242 234 223 218 216 220
286 289 279 276 278 279 263 249 246 242 234 238 245 249 252 256 240 223 224 220 210 230 236 252 254 258 272 285 284 280 273 269 266 261 249 239 237 234 230 216 211 210 222
287 287 285 279 272 275 262 250 246 238 233 240 246 251 254 234 221 222 221 207 208 220 234 247 258 265 279 285 278 276 283 276 264 255 247 237 228 227 223 218 216 214 217
285 285 289 281 268 259 252 246 240 234 238 243 244 240 227 219 211 211 207 206 216 225 245 259 266 277 282 277 263 241 252 256 304 273 230 226 221 224 224 218 214 224 216
285 285 282 279 257 252 249 242 239 236 236 240 245 230 213 208 203 199 195 205 214 233 256 269 276 279 268 262 255 244 239 256 298 342 217 224 205 216 210 210 208 203 219
276 277 279 273 245 240 239 237 237 239 241 242 224 199 201 197 191 195 197 211 222 249 264 277 274 261 262 259 255 250 235 226 225 233 89 213 223 209 204 208 210 207 212
281 278 262 244 225 225 228 228 232 237 228 206 187 191 185 184 196 197 201 213 235 254 267 260 250 244 249 256 261 254 237 232 236 241 222 176 229 218 204 202 206 209 210